< < Back
Terminal Aerodrome Forecast


Current Version              Previous Versions:   1  2  3  4  5  6  7  8  9  

Terminal Aerodrome Forecast

683
FTUS42 KGSP 011000 AAA
TAFGSP
TAF AMD
KGSP 011033Z 0111/0206 22003KT P6SM BKN250
      TEMPO 0111/0113 5SM BR
     FM011300 24003KT P6SM SCT250
     FM011600 24006KT P6SM SCT060
     FM012100 21003KT P6SM BKN060
     FM020100 22003KT P6SM SCT060=



Latest METAR

054
SAUS70 KWBC 021000 RRA
MTRGSP
METAR KGSP 020953Z 22005KT 10SM CLR 23/21 A3008 RMK AO2 SLP173
T02280211


USA.gov is the U.S. government's official web portal to all federal, state and local government web resources and services.